This demonstration page uses our WeatherBlox Daily Observations layout. Learn more.

Left ArrowRight Arrow

38.88101, -77.10428

Hourly Observations for May 13, 2021

Temp ( °F °C ) Dew Point ( °F °C ) Humidity (%) Winds ( mph kmh ) Pressure ( in mb ) Visibility ( mi km ) Precip ( " mm )
12:52 am 00:52 Partly Cloudy 55 12.8 42 5.6 62 62 N N/A 30.24 1024 10 16 N/A
1:52 am 01:52 Partly Cloudy 51 10.6 42 5.6 71 71 N 6 9 30.24 1024 10 16 N/A
2:52 am 02:52 Partly Cloudy 51 10.6 40 4.4 66 66 S 3 6 30.23 1024 10 16 N/A
3:52 am 03:52 Mostly Cloudy 51 10.6 42 5.6 71 71 N 6 9 30.24 1024 10 16 N/A
4:52 am 04:52 Partly Cloudy 52 11.1 41 5 66 66 NE 7 11 30.26 1025 10 16 N/A
5:52 am 05:52 Mostly Clear 49 9.4 36 2.2 61 61 NNW 6 9 30.26 1025 10 16 N/A
6:52 am 06:52 Mostly Sunny 51 10.6 37 2.8 59 59 NNW 9 15 30.27 1025 10 16 N/A
7:52 am 07:52 Mostly Sunny 56 13.3 36 2.2 47 47 N 7 11 30.29 1026 10 16 N/A
8:52 am 08:52 Mostly Sunny 62 16.7 36 2.2 38 38 N 7 11 30.29 1026 10 16 N/A
9:52 am 09:52 Sunny 64 17.8 32 undefined 30 30 N 9 15 30.29 1026 10 16 N/A
10:52 am 10:52 Sunny 67 19.4 33 0.6 28 28 NNW 7 11 30.30 1026 10 16 N/A
11:52 am 11:52 Mostly Sunny 68 20 32 undefined 26 26 NNE 10 17 30.29 1026 10 16 N/A
12:52 pm 12:52 Mostly Sunny 69 20.6 30 -1.1 23 23 W 13 20 30.27 1025 10 16 N/A
1:52 pm 13:52 Partly Cloudy 70 21.1 30 -1.1 23 23 NNW 10 17 30.25 1024 10 16 N/A
2:52 pm 14:52 Partly Cloudy 72 22.2 30 -1.1 21 21 N 7 11 30.24 1024 10 16 N/A
3:52 pm 15:52 Mostly Cloudy 71 21.7 33 0.6 25 25 NW 8 13 30.22 1023 10 16 N/A
4:52 pm 16:52 Mostly Cloudy 71 21.7 34 1.1 26 26 NNW 10 17 30.20 1023 10 16 N/A
5:52 pm 17:52 Partly Cloudy 70 21.1 31 -0.6 23 23 NNW 9 15 30.20 1023 10 16 N/A
6:52 pm 18:52 Partly Cloudy 70 21.1 32 undefined 25 25 WNW 8 13 30.19 1023 10 16 N/A
7:52 pm 19:52 Partly Cloudy 66 18.9 31 -0.6 27 27 N 9 15 30.21 1023 10 16 N/A
8:52 pm 20:52 Partly Cloudy 63 17.2 32 undefined 31 31 NNW 8 13 30.22 1023 10 16 N/A
9:52 pm 21:52 Partly Cloudy 64 17.8 35 1.7 34 34 N N/A 30.24 1024 10 16 N/A
10:52 pm 22:52 Mostly Clear 62 16.7 38 3.3 41 41 N N/A 30.25 1024 10 16 N/A
11:52 pm 23:52 Clear 59 15 40 4.4 49 49 SE 3 6 30.24 1024 10 16 N/A

Powered by AerisWeather